sat.trackr.live / text

‹ back to catalog

STARLINK-6286

NORAD 56558 · 2023-065BH

PAYLOAD ACTIVE UNKNOWN

§ Identity

Operator
Country
US
Launch date
2023-05-14
Launch site
AFETR
Launch vehicle
Mass (kg)
RCS (m²)

Purposes: comms

External: N2YO · Heavens-Above · Gunter

§ Orbital elements

Epoch: 2026-09-20T13:16:52.483008Z

Period
94.27 min
Inclination
43.0023°
Eccentricity
0.0001043
Mean motion
15.27576870 rev/d
Perigee alt
482.3 km
Apogee alt
483.8 km
Semi-major
6,861.2 km
B*
9.6097e-6
RAAN
206.5228°
Arg perigee
266.7646°
Mean anomaly
93.3087°
Rev number
18,623

§ Raw data

STARLINK-62861 56558U 23065BH  26263.55338522  .00000002  00000+0  96097-5 0  99942 56558  43.0023 206.5228 0001043 266.7646  93.3087 15.27576870186231

JSON: /api/v1/satellites/56558 · /tle

For live sub-satellite position, see the globe view (requires WebGL).

§ Visibility from observer

Set your observer location to see the next 7 days of passes ≥ 10°. The values pass through the URL so the page stays shareable.

No JS? Fill the form by hand. The geolocation button needs JavaScript.